Wind_Speed
3 1 7 13 11 7 7 5 7 6 8 2 7 9 14 17 14 10 9 10 10 11 21 17 23 26 24 24 27 25 22 24 24 23 18 20 22 16 12 13 11 12 11 10
6 7 11 10 12 6 8 3 6 9 3 5 8 9 3 8 4 3 7 11 12 12 9 15 21 20 23 24 24 22 25 26 25 22 22 21 21 14 15 16 15 16 14 14
5 11 12 8 10 9 3 6 4 7 9 10 14 6 2 2 6 6 7 12 8 14 9 7 14 22 23 23 22 23 24 25 23 21 22 21 24 20 20 20 17 16 17 16
7 6 6 7 5 4 3 3 2 6 4 4 9 4 2 3 5 6 8 10 7 6 5 5 13 19 22 21 19 18 18 17 20 18 19 23 24 21 23 20 21 15 13 12
12 5 5 4 6 5 7 6 2 3 3 3 3 5 3 3 6 7 3 4 6 6 8 7 13 7 7 4 4 6 9 12 15 15 19 23 24 21 23 22 14 10 14 17
8 4 6 8 5 2 5 1 7 6 4 3 4 5 4 5 6 4 3 8 8 5 6 4 2 2 5 3 3 1 2 5 9 12 13 17 20 25 26 27 27 21 18 20
6 5 4 3 2 7 8 6 4 5 5 5 3 3 4 6 8 6 8 6 6 7 8 6 8 11 10 7 6 6 7 5 3 6 10 12 15 18 20 24 31 28 22 24
4 6 4 2 5 6 2 6 5 3 3 3 4 2 4 5 7 4 4 8 8 8 8 7 10 11 9 12 14 12 9 4 3 4 6 6 7 11 16 22 23 24 24 25
4 4 4 4 3 5 4 2 5 4 0 2 3 1 3 4 7 3 10 6 7 7 5 5 10 12 11 9 9 9 6 2 3 5 1 5 8 11 16 16 20 26 26 21
6 7 5 5 3 3 4 2 2 3 2 4 2 2 4 7 9 9 8 6 5 5 7 5 7 9 7 10 13 9 7 9 8 3 2 4 9 12 16 18 15 19 24 26
4 3 7 4 3 3 4 2 5 4 4 3 1 4 5 9 7 11 8 7 6 7 7 7 9 13 13 16 14 11 12 9 4 2 2 5 6 10 14 18 19 22 25 25
3 3 3 3 5 2 2 3 4 4 5 1 4 5 5 8 8 8 7 6 3 7 8 7 9 11 12 9 9 9 7 2 2 3 7 12 10 14 15 17 20 25 27 22
3 3 4 8 6 6 2 1 3 4 3 2 4 4 2 5 7 7 7 6 4 5 6 3 3 3 3 7 2 3 2 3 3 9 12 13 14 12 16 19 23 23 22 19
3 2 5 5 7 3 5 4 3 4 4 2 4 5 7 9 10 9 8 6 5 5 6 2 5 11 11 9 8 7 8 9 11 12 13 13 11 12 17 22 23 19 20 10
4 2 2 6 6 5 5 2 2 3 6 6 6 10 13 10 9 8 7 5 7 6 6 7 6 10 8 7 7 8 10 13 15 15 16 15 12 14 19 21 22 20 17 8
1 3 2 5 6 8 1 7 3 6 11 8 6 1 5 3 6 6 7 7 6 8 6 6 6 9 9 11 11 11 12 12 15 17 19 21 13 17 21 22 23 16 12 9
3 2 1 4 5 7 4 7 7 4 8 4 5 7 6 4 6 7 6 6 8 7 6 5 6 10 11 10 9 10 8 11 14 17 18 23 21 17 20 22 22 17 12 14
3 2 2 3 5 3 1 3 7 6 5 6 6 5 4 5 5 7 6 8 7 6 5 5 11 11 8 7 9 9 10 13 16 19 21 22 22 20 21 18 21 21 15 14
4 4 3 2 1 1 1 3 2 1 2 5 7 5 5 5 8 7 4 5 6 5 6 9 13 10 8 10 9 9 12 15 17 21 21 21 22 20 19 19 21 22 15 11
7 7 5 2 2 2 3 3 5 3 2 2 6 3 2 3 3 2 1 4 7 9 9 13 12 10 10 10 9 8 10 16 18 19 21 20 19 20 19 20 19 23 12 4
3 3 4 2 1 5 8 7 2 1 6 2 5 4 4 4 4 5 5 5 9 8 11 16 11 8 8 5 6 8 12 14 15 20 21 20 20 18 19 18 17 18 10 6
3 4 2 2 2 3 4 3 0 4 0 6 5 5 9 8 6 6 6 6 7 10 18 13 9 5 4 3 7 7 10 13 15 17 18 19 20 21 20 17 15 13 12 9
3 4 4 6 4 4 3 6 3 4 5 5 6 5 7 7 5 6 5 5 7 14 11 9 7 5 1 4 5 6 9 11 12 16 17 15 18 19 21 17 18 10 12 13
7 2 3 2 2 4 5 3 3 4 5 5 6 6 6 7 5 5 5 4 4 6 10 7 4 1 5 7 8 9 10 10 10 14 17 13 14 18 17 18 19 11 10 11
3 3 2 3 4 3 2 2 6 5 10 10 7 7 7 7 4 4 4 5 4 2 10 8 5 6 10 6 7 8 8 9 8 11 15 13 12 15 14 17 18 9 6 6
2 1 3 2 5 4 3 4 7 9 7 6 7 4 5 8 6 7 7 9 6 4 6 12 12 12 7 7 10 11 10 7 7 9 13 13 10 12 13 16 19 14 8 10
Wind_Direction
307 128 236 234 201 168 171 201 200 248 232 84 180 135 173 186 190 201 200 206 217 216 229 223 235 235 240 238 245 248 252 248 249 249 257 268 264 259 287 291 275 244 250 267
7 261 256 253 254 186 181 173 252 311 228 86 128 139 128 196 214 169 198 213 218 232 228 210 226 230 237 241 243 246 252 252 264 251 254 256 263 269 270 284 268 250 265 282
192 263 296 318 82 267 66 195 242 242 94 98 126 161 192 236 266 278 266 221 213 222 225 225 200 224 238 243 252 258 250 252 268 257 257 255 262 272 277 292 277 257 268 268
243 270 310 264 117 229 146 236 65 354 44 229 194 201 217 275 299 270 228 202 213 213 164 176 200 224 237 246 244 247 253 260 253 260 255 257 266 273 278 291 297 282 278 267
260 273 327 124 176 187 206 211 134 239 336 90 69 89 250 160 245 251 138 104 130 148 149 160 191 201 200 194 224 247 257 258 264 266 268 266 269 282 286 288 287 291 276 286
240 247 169 193 217 188 147 9 26 16 71 18 239 130 233 191 198 159 105 113 137 131 135 75 66 159 172 188 208 248 228 271 276 279 286 274 275 289 289 287 272 265 287 289
312 297 317 153 315 341 68 46 346 353 1 244 136 38 245 196 165 168 153 158 116 116 117 132 153 165 174 187 187 164 176 193 219 266 279 284 287 297 297 293 288 268 266 276
200 329 12 9 183 213 283 140 156 228 236 280 18 198 274 181 189 161 141 162 151 152 171 174 161 157 152 155 165 172 181 194 213 230 255 274 295 311 310 309 289 275 272 273
36 293 310 268 197 120 297 285 183 146 328 93 175 12 357 231 241 144 148 170 160 178 157 151 134 140 152 159 151 148 148 146 104 122 269 299 303 315 315 321 306 293 271 268
22 338 320 327 35 315 180 188 357 13 273 270 207 212 230 195 221 158 158 155 150 134 124 136 143 162 151 155 155 158 159 147 140 109 201 295 310 318 314 313 318 302 284 277
102 124 286 1 354 235 348 24 58 116 129 162 227 253 231 185 167 154 154 173 161 154 166 179 166 156 154 162 166 157 149 147 153 101 35 325 289 318 317 322 312 318 302 280
105 164 294 285 300 242 217 153 115 119 286 208 155 258 348 133 145 155 170 174 170 157 182 197 174 188 198 177 158 156 158 150 64 35 344 335 307 320 326 328 326 320 308 285
28 11 333 340 349 347 29 221 137 125 86 243 139 255 198 147 153 181 158 186 180 167 185 175 217 350 195 164 154 132 67 104 16 335 342 339 340 336 339 331 329 325 318 292
78 139 178 213 239 225 293 323 151 116 107 218 195 167 207 203 195 194 189 177 185 150 152 175 52 72 74 75 69 73 43 23 5 353 353 337 347 352 348 345 340 333 327 299
123 224 241 258 257 291 258 329 147 152 196 160 202 177 204 210 207 200 193 188 141 145 79 90 81 81 97 66 63 61 39 17 8 6 5 349 338 350 350 344 344 339 334 282
180 256 355 304 310 338 180 21 4 52 13 35 79 267 186 151 131 130 179 157 139 105 106 94 83 91 71 75 65 39 18 20 13 2 3 6 356 341 355 350 347 343 358 10
150 161 50 281 324 325 23 357 57 53 30 98 209 224 164 136 147 178 178 116 115 107 108 92 80 99 90 69 44 24 24 13 15 9 7 359 355 353 351 350 347 344 335 343
181 123 105 275 1 11 357 305 64 78 22 355 72 104 152 127 75 68 97 115 112 112 106 91 116 113 94 62 38 31 23 17 7 2 0 357 354 346 353 349 350 348 332 323
164 115 65 68 351 268 295 338 8 70 39 11 84 90 86 122 73 30 83 113 131 131 112 102 125 106 67 44 39 29 19 7 6 360 357 356 354 350 357 352 349 347 337 319
60 66 104 14 93 246 251 248 204 304 243 60 100 121 119 124 79 221 193 112 102 104 95 121 111 95 69 54 35 29 9 11 7 358 355 351 350 0 352 351 347 349 335 311
64 35 114 146 192 297 255 278 147 234 237 107 105 113 112 98 179 165 144 90 107 88 109 119 95 87 88 70 36 8 1 1 358 359 356 357 5 3 359 347 352 354 1 347
149 134 160 99 210 291 356 32 218 210 123 120 117 125 102 123 128 138 142 129 113 97 133 112 116 127 91 56 11 13 356 346 343 350 351 353 358 357 356 356 354 349 2 353
50 170 179 173 221 237 315 131 161 145 134 163 133 141 137 134 129 140 138 125 102 127 130 130 113 79 185 267 303 329 354 350 339 343 348 349 350 353 356 360 358 354 7 15
346 88 84 99 301 180 138 93 78 132 140 109 107 121 105 111 120 122 135 134 116 129 155 155 145 228 268 249 269 297 334 347 341 349 348 340 344 353 356 6 8 355 358 0
237 16 44 8 13 59 328 201 158 97 95 96 89 106 119 113 109 135 159 177 175 169 182 196 220 269 278 321 285 312 312 321 338 347 348 336 333 350 355 6 9 4 15 359
349 238 100 226 273 138 308 79 93 91 100 113 118 118 144 143 158 164 191 204 216 239 215 221 243 264 273 271 284 284 287 323 353 349 348 351 335 341 355 6 12 23 18 22
Height
786 804 817 803 800 800 806 818 820 810 798 805 817 830 835 828 831 836 839 839 841 837 828 834 837 839 839 842 844 844 845 846 845 846 844 842 839 839 839 837 836 835 833 832
803 814 792 784 781 798 803 815 819 806 791 813 821 831 837 831 829 830 835 837 837 834 831 832 834 836 836 837 838 842 842 842 842 841 840 838 835 836 834 834 833 832 831 829
809 795 777 777 785 797 808 814 807 807 803 810 826 841 840 833 829 826 824 823 829 829 828 828 832 833 833 835 837 839 838 838 838 837 837 836 832 833 831 831 829 828 827 826
795 776 781 782 790 790 805 788 790 793 805 830 811 853 843 838 835 828 815 817 823 825 824 826 829 830 831 833 835 836 835 835 834 834 834 832 830 829 828 828 827 825 824 823
794 783 785 795 788 777 791 783 783 786 800 812 824 849 842 839 841 830 819 818 823 825 824 826 827 831 831 833 833 834 834 835 833 833 832 830 828 827 825 824 823 821 820 820
781 763 769 775 770 769 770 786 791 800 814 839 826 837 849 845 831 826 823 820 821 823 823 826 828 830 831 832 833 833 833 833 832 832 830 828 827 824 821 819 817 816 815 815
785 778 764 761 778 770 783 813 842 838 847 846 825 836 838 827 822 823 823 823 824 824 825 827 827 828 829 831 832 832 832 831 830 829 827 826 824 821 818 815 812 810 808 810
809 815 776 765 776 787 788 807 840 848 854 839 828 848 840 822 819 816 817 822 822 824 823 824 825 828 830 829 829 829 830 829 827 825 825 824 821 818 815 811 807 806 804 804
809 804 768 764 761 771 790 804 794 820 823 843 849 839 826 823 820 819 822 824 823 823 825 825 825 825 827 827 828 828 828 826 824 823 822 821 818 816 812 807 804 802 800 800
792 816 780 768 762 766 778 779 810 828 839 841 847 845 845 830 823 824 826 825 824 823 824 824 824 825 826 825 825 825 824 823 821 820 819 818 816 813 809 805 800 798 796 795
788 809 805 783 790 793 793 800 807 817 832 845 853 849 820 819 818 824 824 823 822 821 823 823 823 822 821 821 822 822 821 821 820 817 816 814 811 808 805 802 798 795 790 787
787 809 823 801 780 771 778 793 808 835 829 833 842 846 817 817 819 818 819 817 815 817 819 819 818 819 818 820 821 820 819 819 818 816 814 812 808 806 801 798 794 790 784 782
789 812 832 818 803 785 787 785 793 809 823 828 842 847 816 816 818 817 816 815 816 814 818 818 816 817 817 819 819 819 819 818 817 814 811 809 806 802 799 795 790 785 780 777
788 809 819 836 817 803 799 790 791 808 834 827 826 829 824 820 817 812 814 811 813 816 817 817 819 817 818 820 820 820 819 818 815 813 808 805 802 799 795 791 786 781 777 775
795 816 806 804 796 791 790 788 792 799 803 816 813 818 815 814 810 809 810 812 816 816 819 818 818 818 820 820 820 819 817 814 812 810 805 802 799 796 792 787 783 778 773 772
797 815 805 808 792 788 789 794 786 795 799 809 811 813 804 806 805 809 811 813 815 819 819 818 817 818 820 819 818 817 815 813 810 807 805 801 797 794 789 784 780 777 773 770
803 811 815 822 800 798 813 810 800 803 801 809 819 811 806 810 809 811 812 814 817 818 818 818 818 819 819 819 818 816 814 811 808 806 803 799 795 791 787 782 778 774 772 769
804 807 819 825 816 838 822 811 802 808 806 803 802 806 808 811 814 813 814 817 819 819 819 819 819 819 819 818 817 815 813 810 807 804 800 796 793 789 785 781 777 772 769 766
793 808 824 835 838 820 813 810 814 813 816 807 810 811 813 814 815 823 819 819 820 820 819 819 819 820 819 818 817 815 813 809 805 801 798 795 791 787 783 780 776 771 767 764
800 809 826 838 838 842 816 804 801 807 832 812 813 814 814 816 832 831 824 821 821 820 819 819 819 820 818 818 817 815 812 807 803 801 797 794 790 786 783 779 775 770 765 763
819 824 831 846 842 832 806 798 797 827 835 810 811 813 814 821 825 823 823 822 821 820 819 819 819 819 818 817 815 814 810 805 803 800 797 793 789 785 782 778 774 770 766 763
819 830 838 840 842 833 801 802 812 817 810 812 813 814 819 820 821 821 822 822 821 820 821 819 819 819 818 816 814 811 808 804 802 799 796 792 789 785 781 776 773 769 766 763
818 817 827 829 827 812 805 807 805 807 811 812 811 814 815 819 820 821 822 821 820 819 819 818 818 817 815 812 811 809 805 802 800 798 794 791 788 784 780 775 771 769 766 763
812 804 816 817 814 810 806 803 803 805 807 809 811 814 816 820 820 821 821 821 819 818 817 817 816 814 812 809 809 807 804 802 799 796 793 790 787 783 779 775 771 768 766 764
813 808 813 819 811 810 806 805 805 808 811 813 815 816 818 819 820 820 821 820 818 816 816 815 813 811 809 809 807 804 801 798 796 794 792 788 786 783 779 776 772 768 766 765
814 816 825 829 814 813 812 807 809 813 816 817 817 818 817 816 817 817 818 817 815 813 812 812 810 807 807 806 803 799 797 796 794 792 790 788 785 782 779 776 772 770 768 766